COSMOS 1375 DEB, 27803

Orbit data source: Space-Track

COSMOS 1375 DEB, 27803 is space debris in LEO originally from a launch on Sun, 06 Jun 1982 UTC launched from the Plesetsk Missile And Space Complex (PKMTR). Debris objects in space refer to the collection of defunct objects orbiting the Earth. Examples of debris include non-operational satellites, rocket bodies, and fragments generated from explosions, collisions, or faulty payload assembly.

Loading next visibility...
Identifier
27803, 1982-055BQ
Orbit
LEO
Country
Flag of CISCIS
Related business
Manufacturer
Unknown
Mission
Spacecraft
Bus & Motor
Unknown
Mass
Unknown
Launch date (UTC)
1982-06-06 (44 years ago)
Launch vehicle
Unknown
Launch site
Plesetsk Missile And Space Complex (PKMTR)
Object type
Payload
Rocket body
Debris
Shape & HBR
Unknown shape, 0.1 m
Radar Cross Section
Small (<0.1 m²)

Expand to show TLE details & history
Last TLE update: 6 days ago

TLE from 6 days ago
0 COSMOS 1375 DEB
1 27803U 82055BQ  26167.92936453  .00000950  00000-0  64464-3 0  9994
2 27803  65.8133 112.6445 0016848  58.7820   3.9489 14.04808579791981
Epoch: 2026-06-16T22:18Z
TLE epoch observation values (Epoch: 2026-06-16T22:18:17.095Z)
Latitude
54.30693°
Longitude
-88.66532°
Altitude
873.024 km
Speed
7.428 km/s
True Right ascension
10h 04m 24s
True Declination
54° 08' 47"
Sunlit
Object was in daylight at epoch
Visualization orbit readout
Latitude
Unknown
Longitude
Unknown
Altitude
Unknown
Speed
Unknown
Apparent Right ascension
Unknown
Apparent Declination
Unknown
Sunlit
N/A
Visualization observer readout
Local Sidereal Time
09:42:06
Azimuth
Unknown
Elevation
Unknown
Doppler factor
Unknown
Orbital elements
Apogee altitude
887.911 km
Perigee altitude
863.468 km
Semi-major axis
7,253.826 km
Eccentricity
0.00168
Inclination
65.8133°
RAAN
112.6445°
Arg. of periapsis
58.782°
True anomaly
3.96222°
Mean anomaly
3.9489°
Eccentric anomaly
3.95556°
Mean motion
3.51312 °/min
Orbital period
102.47 mins
BSTAR
0.00064464
Loading maneuver chart data...
Computing Atmospheric mass density...
Loading historical data...
Loading historical data...
Loading historical data...
Loading historical data...
Loading historical data...
Loading historical data...
Loading historical data...

Documentation

Showing up to 5 results
|